This demonstration page uses our WeatherBlox Daily Observations layout. Learn more.

Left ArrowRight Arrow

47.50024, -111.30081

Hourly Observations for October 2, 2022

Temp ( °F °C ) Dew Point ( °F °C ) Humidity (%) Winds ( mph kmh ) Pressure ( in mb ) Visibility ( mi km ) Precip ( " mm )
12:44 am 00:44 Cloudy 50 10 48 8.9 93 93 Calm 30.08 1018 10 16 0.00 0.00
12:53 am 00:53 Cloudy 50 10 48 8.9 93 93 Calm 30.12 1020 10 16 0.00 0.00
1:11 am 01:11 Cloudy with Mist and Fog 50 10 48 8.9 93 93 NNE 5 7 30.08 1018 5 8 0.00 0.00
1:53 am 01:53 Cloudy 50 10 48 8.9 93 93 NE 3 6 30.11 1020 10 16 0.00 0.00
2:53 am 02:53 Cloudy 50 10 48 8.9 93 93 NE 3 6 30.11 1020 10 16 0.00 0.00
3:31 am 03:31 Cloudy 50 10 48 8.9 93 93 NNE 5 7 30.07 1018 9 14 0.00 0.00
3:53 am 03:53 Cloudy 50 10 48 8.9 93 93 NE 3 6 30.11 1020 10 16 0.00 0.00
4:30 am 04:30 Cloudy with Mist and Fog 49 9.4 48 8.9 97 97 Calm 30.06 1018 2 3 0.00 0.00
4:53 am 04:53 Mostly Clear with Mist and Fog 49 9.4 48 8.9 97 97 Calm 30.10 1019 1 1 0.00 0.00
5:49 am 05:49 Cloudy with Mist and Fog 48 9 48 9 100 100 Calm 30.06 1018 2 2 0.00 0.00
5:53 am 05:53 Cloudy with Mist and Fog 49 9.4 48 8.9 97 97 Calm 30.09 1019 2 3 0.00 0.00
5:58 am 05:58 Cloudy with Mist and Fog 49 9.4 48 8.9 97 97 Calm 30.05 1018 3 5 0.00 0.00
6:22 am 06:22 Cloudy with Mist and Fog 49 9.4 48 8.9 97 97 Calm 30.05 1018 5 8 0.00 0.00
6:39 am 06:39 Cloudy with Mist and Fog 49 9.4 48 8.9 97 97 Calm 30.05 1018 3 4 0.00 0.00
6:53 am 06:53 Cloudy with Mist and Fog 49 9.4 48 8.9 97 97 Calm 30.09 1019 3 4 0.00 0.00
7:12 am 07:12 Cloudy with Mist and Fog 49 9.4 48 8.9 97 97 Calm 30.05 1018 3 5 0.00 0.00
7:19 am 07:19 Cloudy with Mist and Fog 49 9.4 48 8.9 97 97 Calm 30.05 1018 0 0 0.00 0.00
7:53 am 07:53 Cloudy with Mist and Fog 49 9.4 48 8.9 97 97 Calm 30.10 1019 1 1 0.00 0.00
8:53 am 08:53 Cloudy with Mist and Fog 50 10 48 8.9 93 93 WSW 3 6 30.10 1019 1 1 0.00 0.00
9:11 am 09:11 Cloudy 50 10 49 9.4 96 96 Calm 30.06 1018 7 11 0.00 0.00
9:45 am 09:45 Cloudy 50 10 49 9.4 96 96 Calm 30.06 1018 9 14 0.00 0.00
9:53 am 09:53 Cloudy 50 10 49 9.4 96 96 Calm 30.11 1020 10 16 0.00 0.00
10:28 am 10:28 Cloudy 51 10.6 49 9.4 92 92 WSW 3 6 30.06 1018 10 16 0.00 0.00
10:53 am 10:53 Cloudy 51 10.6 49 9.4 92 92 WSW 5 7 30.11 1020 10 16 0.00 0.00
11:11 am 11:11 Cloudy 51 10.6 49 9.4 92 92 WSW 3 6 30.06 1018 10 16 0.00 0.00
11:53 am 11:53 Cloudy 52 11.1 49 9.4 89 89 SW 3 6 30.11 1020 10 16 0.00 0.00
12:08 pm 12:08 Cloudy 52 11.1 49 9.4 89 89 WSW 3 6 30.05 1018 10 16 0.00 0.00
12:26 pm 12:26 Cloudy 52 11.1 49 9.4 89 89 WSW 5 7 30.05 1018 10 16 0.00 0.00
12:40 pm 12:40 Cloudy 52 11.1 49 9.4 89 89 W 5 7 30.05 1018 10 16 0.00 0.00
12:53 pm 12:53 Cloudy with Mist and Fog 52 11.1 49 9.4 89 89 W 5 7 30.10 1019 4 6 0.00 0.00
1:18 pm 13:18 Cloudy 52 11.1 49 9.4 89 89 Calm 30.05 1018 8 13 0.01 0.13
1:46 pm 13:46 Cloudy 53 11.7 50 10 89 89 S 3 6 30.03 1017 10 16 0.01 0.13
1:53 pm 13:53 Cloudy 53 11.7 49 9.4 86 86 S 3 6 30.10 1019 10 16 0.01 0.13
2:53 pm 14:53 Cloudy 56 13.3 50 10 80 80 VRB 3 6 30.07 1018 10 16 0.01 0.13
3:15 pm 15:15 Cloudy 57 13.9 49 9.4 74 74 WNW 8 13 29.98 1015 10 16 0.00 0.00
3:53 pm 15:53 Cloudy 57 13.9 49 9.4 74 74 VRB 5 7 30.07 1018 10 16 0.00 0.00
4:22 pm 16:22 Cloudy 57 13.9 48 8.9 72 72 WSW 3 6 29.99 1016 10 16 0.00 0.00
4:53 pm 16:53 Cloudy 58 14.4 48 8.9 70 70 WNW 3 6 30.07 1018 10 16 0.00 0.00
5:09 pm 17:09 Cloudy 58 14.4 49 9.4 72 72 Calm 29.99 1015 10 16 0.00 0.00
5:53 pm 17:53 Cloudy 57 13.9 49 9.4 74 74 W 5 7 30.08 1019 10 16 0.00 0.00
6:53 pm 18:53 Cloudy 56 13.3 49 9.4 77 77 Calm 30.09 1019 10 16 0.00 0.00
7:53 pm 19:53 Cloudy 55 12.8 49 9.4 80 80 ENE 5 7 30.10 1019 10 16 0.01 0.13
8:53 pm 20:53 Cloudy 55 12.8 50 10 83 83 Calm 30.11 1020 10 16 0.00 0.00
9:53 pm 21:53 Cloudy 54 12.2 50 10 86 86 ESE 3 6 30.11 1020 10 16 0.00 0.00
10:53 pm 22:53 Cloudy 53 11.7 50 10 89 89 Calm 30.12 1020 10 16 0.00 0.00
11:53 pm 23:53 Cloudy 52 11.1 49 9.4 89 89 NE 5 7 30.13 1020 10 16 0.00 0.00

Powered by AerisWeather